San Jose, Costa Rica

12:02 PM CST on September 22, 2017 (GMT -0600)
Juan Santamaria International

Weather History for MROC - February, 2015

Change the Weather History Date:

Monday, February 16, 2015

  Actual Average Record
Temperature  
Mean Temperature 76 °F -  
Max Temperature 83 °F 82 °F 91 °F (1998)
Min Temperature 68 °F 64 °F 60 °F (2007)
Cooling Degree Days 11    
Growing Degree Days 26 (Base 50)    
Moisture  
Dew Point 60 °F    
Average Humidity 60    
Maximum Humidity 73    
Minimum Humidity 39    
Precipitation  
Precipitation 0.00 in 0.02 in - ()
Sea Level Pressure  
Sea Level Pressure 29.94 in    
Wind  
Wind Speed 12 mph ()    
Max Wind Speed 17 mph    
Max Gust Speed 31 mph    
Visibility 8.0 miles    
Events      
Averages and records for this station are not official NWS values.
T = Trace of Precipitation, MM = Missing Value Source: Averaged Metar Reports

Daily Weather History Graph

Daily Weather History Graph

Search for Another Location

Airport or City:

Trip Planner

Search our weather history database for the weather conditions in past years. The results will help you decide how hot, cold, wet, or windy it might be!

Date:

Astronomy

Feb. 16, 2015 Rise Set
Actual Time 5:56 AM CST 5:45 PM CST
Civil Twilight 5:34 AM CST 6:07 PM CST
Nautical Twilight 5:10 AM CST 6:31 PM CST
Astronomical Twilight 4:45 AM CST 6:56 PM CST
Moon 3:33 AM CST (2/16) 3:37 PM CST (2/16)
Length of Visible Light 12h 32m
Length of Day
11h 49m
Waning Crescent, 7% of the Moon is Illuminated
Feb 16
Waning Crescent
Feb 18
New
Feb 25
First Quarter
Mar 5
Full
Mar 13
Last Quarter

Hourly Weather History & Observations

Time (CST) Temp. Heat Index Dew Point Humidity Pressure Visibility Wind Dir Wind Speed Gust Speed Precip Events Conditions
12:00 AM 71 °F - 60 °F 61% 29.83 in 12 mi East 12.7 mph - -   Scattered Clouds
12:00 AM 69.8 °F - 60.8 °F 73% 29.99 in 6.2 mi East 12.7 mph 24.2 mph N/A   Partly Cloudy
1:00 AM 69.8 °F - 60.8 °F 73% 29.97 in 6.2 mi East 12.7 mph 24.2 mph N/A   Partly Cloudy
2:00 AM 69.8 °F - 60.8 °F 73% 29.95 in 6.2 mi East 12.7 mph 24.2 mph N/A   Partly Cloudy
3:00 AM 70 °F - 61 °F 65% 29.79 in 12 mi East 15.0 mph - -   Scattered Clouds
3:00 AM 69.8 °F - 60.8 °F 73% 29.94 in 6.2 mi East 15.0 mph 26.5 mph N/A   Partly Cloudy
4:00 AM 69.8 °F - 60.8 °F 73% 29.93 in 6.2 mi East 15.0 mph 26.5 mph N/A   Partly Cloudy
5:00 AM 69.8 °F - 60.8 °F 73% 29.94 in 6.2 mi East 17.3 mph 28.8 mph N/A   Partly Cloudy
6:00 AM 70 °F - 61 °F 65% 29.83 in 12 mi ESE 12.7 mph - -   Scattered Clouds
6:00 AM 69.8 °F - 60.8 °F 73% 29.96 in 6.2 mi ESE 12.7 mph 26.5 mph N/A   Partly Cloudy
7:00 AM 69.8 °F - 60.8 °F 73% 29.99 in 6.2 mi East 13.8 mph 25.3 mph N/A   Partly Cloudy
8:00 AM 75.2 °F - 60.8 °F 61% 30.00 in - East 12.7 mph 25.3 mph N/A   Clear
9:00 AM 79 °F - 61 °F 44% 29.87 in 12 mi East 13.8 mph - -   Scattered Clouds
9:00 AM 78.8 °F - 60.8 °F 54% 30.03 in 6.2 mi East 13.8 mph 25.3 mph N/A   Partly Cloudy
10:00 AM 80.6 °F 81.5 °F 60.8 °F 51% 30.02 in 6.2 mi East 13.8 mph 25.3 mph N/A   Scattered Clouds
11:00 AM 80.6 °F 81.5 °F 60.8 °F 51% 30.01 in 6.2 mi East 17.3 mph 28.8 mph N/A   Scattered Clouds
12:00 PM 81 °F - 60 °F 39% 29.83 in 12 mi East 16.1 mph - -   Partly Cloudy
12:00 PM 80.6 °F 81.5 °F 60.8 °F 51% 29.99 in 6.2 mi East 16.1 mph 28.8 mph N/A   Scattered Clouds
1:00 PM 82.4 °F 82.9 °F 60.8 °F 48% 29.97 in 6.2 mi East 17.3 mph 31.1 mph N/A   Scattered Clouds
2:00 PM 80.6 °F 81.5 °F 60.8 °F 51% 29.95 in 6.2 mi East 13.8 mph 25.3 mph N/A   Partly Cloudy
3:00 PM 80 °F - 60 °F 40% 29.79 in 12 mi ENE 16.1 mph - -   Partly Cloudy
3:00 PM 80.6 °F 81.5 °F 60.8 °F 51% 29.94 in 6.2 mi ENE 16.1 mph 27.6 mph N/A   Scattered Clouds
4:00 PM 77.0 °F - 59.0 °F 54% 29.92 in - East 16.1 mph 28.8 mph N/A   Scattered Clouds
5:00 PM 75.2 °F - 57.2 °F 53% 29.95 in 6.2 mi East 13.8 mph 25.3 mph N/A   Scattered Clouds
6:00 PM 73 °F - 57 °F 48% 29.83 in 12 mi East 11.5 mph - -   Scattered Clouds
6:00 PM 73.4 °F - 57.2 °F 57% 29.96 in 6.2 mi East 11.5 mph - N/A   Scattered Clouds
7:00 PM 69.8 °F - 57.2 °F 64% 29.99 in 6.2 mi East 10.4 mph - N/A   Partly Cloudy
8:00 PM 69.8 °F - 59.0 °F 68% 30.01 in - East 10.4 mph - N/A   Clear
9:00 PM 70 °F - 58 °F 57% 29.87 in 12 mi East 10.4 mph - -  
9:00 PM 69.8 °F - 57.2 °F 64% 30.02 in - East 10.4 mph - N/A   Clear
11:00 PM 68.0 °F - 55.4 °F 64% 30.02 in - East 12.7 mph - N/A   Clear